owner,sensor,date,latitude,longitude,vertical_datum,wind_speed,wind_to_direction,wind_speed_of_gust,qcFlag 
COMPS,ioos:station:USF.COMPS:ARP:1,2015-04-01T00:00:00Z,28.4330,-82.6670,10.0,3.83,273.49,4.99,'1111122,1111122,1111122' 
COMPS,ioos:station:USF.COMPS:ARP:1,2015-04-01T00:06:00Z,28.4330,-82.6670,10.0,3.7,274.37,5.19,'1111122,1111122,1111122' 
COMPS,ioos:station:USF.COMPS:ARP:1,2015-04-01T00:12:00Z,28.4330,-82.6670,10.0,4.05,272.21,5.58,'1111122,1111122,1111122' 
COMPS,ioos:station:USF.COMPS:ARP:1,2015-04-01T00:18:00Z,28.4330,-82.6670,10.0,3.06,270.23,4.21,'1111122,1111122,1111122' 
COMPS,ioos:station:USF.COMPS:ARP:1,2015-04-01T00:24:00Z,28.4330,-82.6670,10.0,3.74,271.4,4.8,'1111122,1111122,1111122' 
COMPS,ioos:station:USF.COMPS:ARP:1,2015-04-01T00:30:00Z,28.4330,-82.6670,10.0,3.51,270.06,4.21,'1111122,1111122,1111122' 
COMPS,ioos:station:USF.COMPS:ARP:1,2015-04-01T00:36:00Z,28.4330,-82.6670,10.0,4.19,265.82,6.07,'1111122,1111122,1111122' 
COMPS,ioos:station:USF.COMPS:ARP:1,2015-04-01T00:42:00Z,28.4330,-82.6670,10.0,3.57,272.45,5.39,'1111122,1111122,1111122' 
COMPS,ioos:station:USF.COMPS:ARP:1,2015-04-01T00:48:00Z,28.4330,-82.6670,10.0,3.75,272.07,5.68,'1111122,1111122,1111122' 
COMPS,ioos:station:USF.COMPS:ARP:1,2015-04-01T00:54:00Z,28.4330,-82.6670,10.0,3.94,272.06,5.48,'1111122,1111122,1111122' 
COMPS,ioos:station:USF.COMPS:ARP:1,2015-04-01T01:00:00Z,28.4330,-82.6670,10.0,4.3,277.13,5.78,'1111122,1111122,1111122' 
COMPS,ioos:station:USF.COMPS:ARP:1,2015-04-01T01:06:00Z,28.4330,-82.6670,10.0,3.86,271.04,5.78,'1111122,1111122,1111122' 
COMPS,ioos:station:USF.COMPS:ARP:1,2015-04-01T01:12:00Z,28.4330,-82.6670,10.0,3.48,269.06,4.6,'1111122,1111122,1111122' 
COMPS,ioos:station:USF.COMPS:ARP:1,2015-04-01T01:18:00Z,28.4330,-82.6670,10.0,3.0,261.97,3.91,'1111122,1111122,1111122' 
COMPS,ioos:station:USF.COMPS:ARP:1,2015-04-01T01:24:00Z,28.4330,-82.6670,10.0,3.5,264.86,4.9,'1111122,1111122,1111122' 
COMPS,ioos:station:USF.COMPS:ARP:1,2015-04-01T01:30:00Z,28.4330,-82.6670,10.0,3.09,266.22,4.01,'1111122,1111122,1111122' 
COMPS,ioos:station:USF.COMPS:ARP:1,2015-04-01T01:36:00Z,28.4330,-82.6670,10.0,3.01,268.71,4.31,'1111122,1111122,1111122' 
COMPS,ioos:station:USF.COMPS:ARP:1,2015-04-01T01:42:00Z,28.4330,-82.6670,10.0,3.61,267.31,5.19,'1111122,1111122,1111122' 
COMPS,ioos:station:USF.COMPS:ARP:1,2015-04-01T01:48:00Z,28.4330,-82.6670,10.0,2.8,273.36,4.01,'1111122,1111122,1111122' 
COMPS,ioos:station:USF.COMPS:ARP:1,2015-04-01T01:54:00Z,28.4330,-82.6670,10.0,3.2,263.52,4.7,'1111122,1111122,1111122' 
COMPS,ioos:station:USF.COMPS:ARP:1,2015-04-01T02:00:00Z,28.4330,-82.6670,10.0,3.11,260.5,4.8,'1111122,1111122,1111122' 
COMPS,ioos:station:USF.COMPS:ARP:1,2015-04-01T02:06:00Z,28.4330,-82.6670,10.0,3.01,267.07,4.21,'1111122,1111122,1111122' 
COMPS,ioos:station:USF.COMPS:ARP:1,2015-04-01T02:12:00Z,28.4330,-82.6670,10.0,3.04,266.36,4.11,'1111122,1111122,1111122' 
COMPS,ioos:station:USF.COMPS:ARP:1,2015-04-01T02:18:00Z,28.4330,-82.6670,10.0,3.1,269.65,4.5,'1111122,1111122,1111122' 
COMPS,ioos:station:USF.COMPS:ARP:1,2015-04-01T02:24:00Z,28.4330,-82.6670,10.0,2.97,266.12,3.91,'1111122,1111122,1111122' 
COMPS,ioos:station:USF.COMPS:ARP:1,2015-04-01T02:30:00Z,28.4330,-82.6670,10.0,3.43,266.93,4.5,'1111122,1111122,1111122' 
COMPS,ioos:station:USF.COMPS:ARP:1,2015-04-01T02:36:00Z,28.4330,-82.6670,10.0,3.56,263.8,4.8,'1111122,1111122,1111122' 
COMPS,ioos:station:USF.COMPS:ARP:1,2015-04-01T02:42:00Z,28.4330,-82.6670,10.0,3.98,265.39,6.07,'1111122,1111122,1111122' 
COMPS,ioos:station:USF.COMPS:ARP:1,2015-04-01T02:48:00Z,28.4330,-82.6670,10.0,3.87,267.76,4.9,'1111122,1111122,1111122' 
COMPS,ioos:station:USF.COMPS:ARP:1,2015-04-01T02:54:00Z,28.4330,-82.6670,10.0,3.41,272.23,4.8,'1111122,1111122,1111122' 
COMPS,ioos:station:USF.COMPS:ARP:1,2015-04-01T03:00:00Z,28.4330,-82.6670,10.0,4.46,274.64,5.58,'1111122,1111122,1111122' 
COMPS,ioos:station:USF.COMPS:ARP:1,2015-04-01T03:06:00Z,28.4330,-82.6670,10.0,4.01,275.56,5.68,'1111122,1111122,1111122' 
COMPS,ioos:station:USF.COMPS:ARP:1,2015-04-01T03:12:00Z,28.4330,-82.6670,10.0,4.27,272.66,5.97,'1111122,1111122,1111122' 
COMPS,ioos:station:USF.COMPS:ARP:1,2015-04-01T03:18:00Z,28.4330,-82.6670,10.0,4.46,275.11,5.97,'1111122,1111122,1111122' 
COMPS,ioos:station:USF.COMPS:ARP:1,2015-04-01T03:24:00Z,28.4330,-82.6670,10.0,4.4,271.5,5.97,'1111122,1111122,1111122' 
COMPS,ioos:station:USF.COMPS:ARP:1,2015-04-01T03:30:00Z,28.4330,-82.6670,10.0,4.42,275.73,5.97,'1111122,1111122,1111122' 
COMPS,ioos:station:USF.COMPS:ARP:1,2015-04-01T03:36:00Z,28.4330,-82.6670,10.0,4.61,276.58,6.56,'1111122,1111122,1111122' 
COMPS,ioos:station:USF.COMPS:ARP:1,2015-04-01T03:42:00Z,28.4330,-82.6670,10.0,4.55,277.77,6.56,'1111122,1111122,1111122' 
COMPS,ioos:station:USF.COMPS:ARP:1,2015-04-01T03:48:00Z,28.4330,-82.6670,10.0,4.3,275.28,5.87,'1111122,1111122,1111122' 
COMPS,ioos:station:USF.COMPS:ARP:1,2015-04-01T03:54:00Z,28.4330,-82.6670,10.0,4.34,276.76,5.87,'1111122,1111122,1111122' 
COMPS,ioos:station:USF.COMPS:ARP:1,2015-04-01T04:00:00Z,28.4330,-82.6670,10.0,4.62,279.44,6.46,'1111122,1111122,1111122' 
COMPS,ioos:station:USF.COMPS:ARP:1,2015-04-01T04:06:00Z,28.4330,-82.6670,10.0,4.87,277.22,6.46,'1111122,1111122,1111122' 
COMPS,ioos:station:USF.COMPS:ARP:1,2015-04-01T04:12:00Z,28.4330,-82.6670,10.0,4.77,278.19,6.76,'1111122,1111122,1111122' 
COMPS,ioos:station:USF.COMPS:ARP:1,2015-04-01T04:18:00Z,28.4330,-82.6670,10.0,4.77,277.22,6.07,'1111122,1111122,1111122' 
COMPS,ioos:station:USF.COMPS:ARP:1,2015-04-01T04:24:00Z,28.4330,-82.6670,10.0,4.9,279.49,6.56,'1111122,1111122,1111122' 
COMPS,ioos:station:USF.COMPS:ARP:1,2015-04-01T04:30:00Z,28.4330,-82.6670,10.0,4.74,278.41,6.46,'1111122,1111122,1111122' 
COMPS,ioos:station:USF.COMPS:ARP:1,2015-04-01T04:36:00Z,28.4330,-82.6670,10.0,4.2,275.3,6.07,'1111122,1111122,1111122' 
COMPS,ioos:station:USF.COMPS:ARP:1,2015-04-01T04:42:00Z,28.4330,-82.6670,10.0,3.89,275.58,5.39,'1111122,1111122,1111122' 
COMPS,ioos:station:USF.COMPS:ARP:1,2015-04-01T04:48:00Z,28.4330,-82.6670,10.0,4.39,273.95,5.48,'1111122,1111122,1111122' 
COMPS,ioos:station:USF.COMPS:ARP:1,2015-04-01T04:54:00Z,28.4330,-82.6670,10.0,4.11,274.87,5.58,'1111122,1111122,1111122' 
COMPS,ioos:station:USF.COMPS:ARP:1,2015-04-01T05:00:00Z,28.4330,-82.6670,10.0,4.84,274.82,6.07,'1111122,1111122,1111122' 
COMPS,ioos:station:USF.COMPS:ARP:1,2015-04-01T05:06:00Z,28.4330,-82.6670,10.0,4.74,275.6,6.66,'1111122,1111122,1111122' 
COMPS,ioos:station:USF.COMPS:ARP:1,2015-04-01T05:12:00Z,28.4330,-82.6670,10.0,4.66,271.19,6.46,'1111122,1111122,1111122' 
COMPS,ioos:station:USF.COMPS:ARP:1,2015-04-01T05:18:00Z,28.4330,-82.6670,10.0,4.44,274.46,5.97,'1111122,1111122,1111122' 
COMPS,ioos:station:USF.COMPS:ARP:1,2015-04-01T05:24:00Z,28.4330,-82.6670,10.0,4.44,275.38,6.07,'1111122,1111122,1111122' 
COMPS,ioos:station:USF.COMPS:ARP:1,2015-04-01T05:30:00Z,28.4330,-82.6670,10.0,4.49,274.36,5.58,'1111122,1111122,1111122' 
COMPS,ioos:station:USF.COMPS:ARP:1,2015-04-01T05:36:00Z,28.4330,-82.6670,10.0,4.24,275.97,5.87,'1111122,1111122,1111122' 
COMPS,ioos:station:USF.COMPS:ARP:1,2015-04-01T05:42:00Z,28.4330,-82.6670,10.0,4.08,275.28,5.68,'1111122,1111122,1111122' 
COMPS,ioos:station:USF.COMPS:ARP:1,2015-04-01T05:48:00Z,28.4330,-82.6670,10.0,4.39,273.96,6.37,'1111122,1111122,1111122' 
COMPS,ioos:station:USF.COMPS:ARP:1,2015-04-01T05:54:00Z,28.4330,-82.6670,10.0,3.83,275.43,5.87,'1111122,1111122,1111122' 
COMPS,ioos:station:USF.COMPS:ARP:1,2015-04-01T06:00:00Z,28.4330,-82.6670,10.0,4.5,272.99,6.37,'1111122,1111122,1111122' 
COMPS,ioos:station:USF.COMPS:ARP:1,2015-04-01T06:06:00Z,28.4330,-82.6670,10.0,4.22,271.89,5.87,'1111122,1111122,1111122' 
COMPS,ioos:station:USF.COMPS:ARP:1,2015-04-01T06:12:00Z,28.4330,-82.6670,10.0,4.43,274.72,6.07,'1111122,1111122,1111122' 
COMPS,ioos:station:USF.COMPS:ARP:1,2015-04-01T06:18:00Z,28.4330,-82.6670,10.0,4.21,271.93,5.68,'1111122,1111122,1111122' 
COMPS,ioos:station:USF.COMPS:ARP:1,2015-04-01T06:24:00Z,28.4330,-82.6670,10.0,3.72,274.6,4.99,'1111122,1111122,1111122' 
COMPS,ioos:station:USF.COMPS:ARP:1,2015-04-01T06:30:00Z,28.4330,-82.6670,10.0,3.79,269.53,5.29,'1111122,1111122,1111122' 
COMPS,ioos:station:USF.COMPS:ARP:1,2015-04-01T06:36:00Z,28.4330,-82.6670,10.0,3.76,273.25,6.17,'1111122,1111122,1111122' 
COMPS,ioos:station:USF.COMPS:ARP:1,2015-04-01T06:42:00Z,28.4330,-82.6670,10.0,3.71,268.91,5.78,'1111122,1111122,1111122' 
COMPS,ioos:station:USF.COMPS:ARP:1,2015-04-01T06:48:00Z,28.4330,-82.6670,10.0,3.75,271.62,5.09,'1111122,1111122,1111122' 
COMPS,ioos:station:USF.COMPS:ARP:1,2015-04-01T06:54:00Z,28.4330,-82.6670,10.0,3.72,269.75,5.19,'1111122,1111122,1111122' 
COMPS,ioos:station:USF.COMPS:ARP:1,2015-04-01T07:00:00Z,28.4330,-82.6670,10.0,3.79,272.31,4.99,'1111122,1111122,1111122' 
COMPS,ioos:station:USF.COMPS:ARP:1,2015-04-01T07:06:00Z,28.4330,-82.6670,10.0,3.67,271.72,5.29,'1111122,1111122,1111122' 
COMPS,ioos:station:USF.COMPS:ARP:1,2015-04-01T07:12:00Z,28.4330,-82.6670,10.0,3.74,271.5,5.29,'1111122,1111122,1111122' 
COMPS,ioos:station:USF.COMPS:ARP:1,2015-04-01T07:18:00Z,28.4330,-82.6670,10.0,3.69,269.83,5.19,'1111122,1111122,1111122' 
COMPS,ioos:station:USF.COMPS:ARP:1,2015-04-01T07:24:00Z,28.4330,-82.6670,10.0,3.68,268.61,5.19,'1111122,1111122,1111122' 
COMPS,ioos:station:USF.COMPS:ARP:1,2015-04-01T07:30:00Z,28.4330,-82.6670,10.0,3.73,265.93,5.29,'1111122,1111122,1111122' 
COMPS,ioos:station:USF.COMPS:ARP:1,2015-04-01T07:36:00Z,28.4330,-82.6670,10.0,3.33,264.16,4.5,'1111122,1111122,1111122' 
COMPS,ioos:station:USF.COMPS:ARP:1,2015-04-01T07:42:00Z,28.4330,-82.6670,10.0,3.34,265.46,4.41,'1111122,1111122,1111122' 
COMPS,ioos:station:USF.COMPS:ARP:1,2015-04-01T07:48:00Z,28.4330,-82.6670,10.0,3.42,263.57,4.5,'1111122,1111122,1111122' 
COMPS,ioos:station:USF.COMPS:ARP:1,2015-04-01T07:54:00Z,28.4330,-82.6670,10.0,3.58,263.62,4.41,'1111122,1111122,1111122' 
COMPS,ioos:station:USF.COMPS:ARP:1,2015-04-01T08:00:00Z,28.4330,-82.6670,10.0,3.73,266.68,5.39,'1111122,1111122,1111122' 
COMPS,ioos:station:USF.COMPS:ARP:1,2015-04-01T08:06:00Z,28.4330,-82.6670,10.0,3.59,265.59,4.6,'1111122,1111122,1111122' 
COMPS,ioos:station:USF.COMPS:ARP:1,2015-04-01T08:12:00Z,28.4330,-82.6670,10.0,3.63,266.65,5.09,'1111122,1111122,1111122' 
COMPS,ioos:station:USF.COMPS:ARP:1,2015-04-01T08:18:00Z,28.4330,-82.6670,10.0,3.45,265.26,4.6,'1111122,1111122,1111122' 
COMPS,ioos:station:USF.COMPS:ARP:1,2015-04-01T08:24:00Z,28.4330,-82.6670,10.0,3.53,262.39,4.5,'1111122,1111122,1111122' 
COMPS,ioos:station:USF.COMPS:ARP:1,2015-04-01T08:30:00Z,28.4330,-82.6670,10.0,3.65,266.77,4.8,'1111122,1111122,1111122' 
COMPS,ioos:station:USF.COMPS:ARP:1,2015-04-01T08:36:00Z,28.4330,-82.6670,10.0,3.67,263.09,5.48,'1111122,1111122,1111122' 
COMPS,ioos:station:USF.COMPS:ARP:1,2015-04-01T08:42:00Z,28.4330,-82.6670,10.0,3.61,264.97,4.99,'1111122,1111122,1111122' 
COMPS,ioos:station:USF.COMPS:ARP:1,2015-04-01T08:48:00Z,28.4330,-82.6670,10.0,3.56,264.13,4.7,'1111122,1111122,1111122' 
COMPS,ioos:station:USF.COMPS:ARP:1,2015-04-01T08:54:00Z,28.4330,-82.6670,10.0,3.5,265.98,4.9,'1111122,1111122,1111122' 
COMPS,ioos:station:USF.COMPS:ARP:1,2015-04-01T09:00:00Z,28.4330,-82.6670,10.0,3.65,266.32,5.48,'1111122,1111122,1111122' 
COMPS,ioos:station:USF.COMPS:ARP:1,2015-04-01T09:06:00Z,28.4330,-82.6670,10.0,3.6,266.26,4.8,'1111122,1111122,1111122' 
COMPS,ioos:station:USF.COMPS:ARP:1,2015-04-01T09:12:00Z,28.4330,-82.6670,10.0,3.7,262.7,5.19,'1111122,1111122,1111122' 
COMPS,ioos:station:USF.COMPS:ARP:1,2015-04-01T09:18:00Z,28.4330,-82.6670,10.0,3.61,267.02,4.7,'1111122,1111122,1111122' 
COMPS,ioos:station:USF.COMPS:ARP:1,2015-04-01T09:24:00Z,28.4330,-82.6670,10.0,3.2,264.41,4.21,'1111122,1111122,1111122' 
COMPS,ioos:station:USF.COMPS:ARP:1,2015-04-01T09:30:00Z,28.4330,-82.6670,10.0,3.57,263.65,5.48,'1111122,1111122,1111122' 
COMPS,ioos:station:USF.COMPS:ARP:1,2015-04-01T09:36:00Z,28.4330,-82.6670,10.0,3.48,266.11,4.21,'1111122,1111122,1111122' 
COMPS,ioos:station:USF.COMPS:ARP:1,2015-04-01T09:42:00Z,28.4330,-82.6670,10.0,3.48,265.23,4.99,'1111122,1111122,1111122' 
COMPS,ioos:station:USF.COMPS:ARP:1,2015-04-01T09:48:00Z,28.4330,-82.6670,10.0,3.72,265.53,4.99,'1111122,1111122,1111122' 
COMPS,ioos:station:USF.COMPS:ARP:1,2015-04-01T09:54:00Z,28.4330,-82.6670,10.0,3.45,263.71,4.41,'1111122,1111122,1111122' 
COMPS,ioos:station:USF.COMPS:ARP:1,2015-04-01T10:00:00Z,28.4330,-82.6670,10.0,3.3,262.12,4.41,'1111122,1111122,1111122' 
COMPS,ioos:station:USF.COMPS:ARP:1,2015-04-01T10:06:00Z,28.4330,-82.6670,10.0,3.53,265.78,4.9,'1111122,1111122,1111122' 
COMPS,ioos:station:USF.COMPS:ARP:1,2015-04-01T10:12:00Z,28.4330,-82.6670,10.0,3.67,266.76,5.97,'1111122,1111122,1111122' 
COMPS,ioos:station:USF.COMPS:ARP:1,2015-04-01T10:18:00Z,28.4330,-82.6670,10.0,3.89,266.38,5.09,'1111122,1111122,1111122' 
COMPS,ioos:station:USF.COMPS:ARP:1,2015-04-01T10:24:00Z,28.4330,-82.6670,10.0,3.77,265.49,5.09,'1111122,1111122,1111122' 
COMPS,ioos:station:USF.COMPS:ARP:1,2015-04-01T10:30:00Z,28.4330,-82.6670,10.0,3.41,266.54,4.41,'1111122,1111122,1111122' 
COMPS,ioos:station:USF.COMPS:ARP:1,2015-04-01T10:36:00Z,28.4330,-82.6670,10.0,3.39,266.97,4.5,'1111122,1111122,1111122' 
COMPS,ioos:station:USF.COMPS:ARP:1,2015-04-01T10:42:00Z,28.4330,-82.6670,10.0,3.57,263.83,5.29,'1111122,1111122,1111122' 
COMPS,ioos:station:USF.COMPS:ARP:1,2015-04-01T10:48:00Z,28.4330,-82.6670,10.0,3.48,267.12,4.8,'1111122,1111122,1111122' 
COMPS,ioos:station:USF.COMPS:ARP:1,2015-04-01T10:54:00Z,28.4330,-82.6670,10.0,3.76,268.48,5.39,'1111122,1111122,1111122' 
COMPS,ioos:station:USF.COMPS:ARP:1,2015-04-01T11:00:00Z,28.4330,-82.6670,10.0,3.42,259.6,4.6,'1111122,1111122,1111122' 
COMPS,ioos:station:USF.COMPS:ARP:1,2015-04-01T11:06:00Z,28.4330,-82.6670,10.0,3.23,263.67,4.01,'1111122,1111122,1111122' 
COMPS,ioos:station:USF.COMPS:ARP:1,2015-04-01T11:12:00Z,28.4330,-82.6670,10.0,3.22,267.41,4.5,'1111122,1111122,1111122' 
COMPS,ioos:station:USF.COMPS:ARP:1,2015-04-01T11:18:00Z,28.4330,-82.6670,10.0,3.41,266.31,4.31,'1111122,1111122,1111122' 
COMPS,ioos:station:USF.COMPS:ARP:1,2015-04-01T11:24:00Z,28.4330,-82.6670,10.0,3.44,268.06,4.6,'1111122,1111122,1111122' 
COMPS,ioos:station:USF.COMPS:ARP:1,2015-04-01T11:30:00Z,28.4330,-82.6670,10.0,3.56,266.54,4.6,'1111122,1111122,1111122' 
COMPS,ioos:station:USF.COMPS:ARP:1,2015-04-01T11:36:00Z,28.4330,-82.6670,10.0,3.47,263.72,5.19,'1111122,1111122,1111122' 
COMPS,ioos:station:USF.COMPS:ARP:1,2015-04-01T11:42:00Z,28.4330,-82.6670,10.0,3.02,261.73,4.11,'1111122,1111122,1111122' 
COMPS,ioos:station:USF.COMPS:ARP:1,2015-04-01T11:48:00Z,28.4330,-82.6670,10.0,3.03,267.02,4.41,'1111122,1111122,1111122' 
COMPS,ioos:station:USF.COMPS:ARP:1,2015-04-01T11:54:00Z,28.4330,-82.6670,10.0,3.11,267.43,4.31,'1111122,1111122,1111122' 
COMPS,ioos:station:USF.COMPS:ARP:1,2015-04-01T12:00:00Z,28.4330,-82.6670,10.0,3.7,265.4,5.48,'1111122,1111122,1111122' 
COMPS,ioos:station:USF.COMPS:ARP:1,2015-04-01T12:06:00Z,28.4330,-82.6670,10.0,3.68,262.92,5.48,'1111122,1111122,1111122' 
COMPS,ioos:station:USF.COMPS:ARP:1,2015-04-01T12:12:00Z,28.4330,-82.6670,10.0,3.69,269.35,5.29,'1111122,1111122,1111122' 
COMPS,ioos:station:USF.COMPS:ARP:1,2015-04-01T12:18:00Z,28.4330,-82.6670,10.0,4.15,267.43,5.48,'1111122,1111122,1111122' 
COMPS,ioos:station:USF.COMPS:ARP:1,2015-04-01T12:24:00Z,28.4330,-82.6670,10.0,3.8,271.61,6.07,'1111122,1111122,1111122' 
COMPS,ioos:station:USF.COMPS:ARP:1,2015-04-01T12:30:00Z,28.4330,-82.6670,10.0,3.68,268.62,4.99,'1111122,1111122,1111122' 
COMPS,ioos:station:USF.COMPS:ARP:1,2015-04-01T12:36:00Z,28.4330,-82.6670,10.0,3.77,268.48,5.68,'1111122,1111122,1111122' 
COMPS,ioos:station:USF.COMPS:ARP:1,2015-04-01T12:42:00Z,28.4330,-82.6670,10.0,4.34,270.63,6.17,'1111122,1111122,1111122' 
COMPS,ioos:station:USF.COMPS:ARP:1,2015-04-01T12:48:00Z,28.4330,-82.6670,10.0,4.73,268.21,6.17,'1111122,1111122,1111122' 
COMPS,ioos:station:USF.COMPS:ARP:1,2015-04-01T12:54:00Z,28.4330,-82.6670,10.0,4.28,271.26,5.87,'1111122,1111122,1111122' 
COMPS,ioos:station:USF.COMPS:ARP:1,2015-04-01T13:00:00Z,28.4330,-82.6670,10.0,4.6,271.77,6.17,'1111122,1111122,1111122' 
COMPS,ioos:station:USF.COMPS:ARP:1,2015-04-01T13:06:00Z,28.4330,-82.6670,10.0,4.32,272.97,5.58,'1111122,1111122,1111122' 
COMPS,ioos:station:USF.COMPS:ARP:1,2015-04-01T13:12:00Z,28.4330,-82.6670,10.0,4.83,273.17,6.07,'1111122,1111122,1111122' 
COMPS,ioos:station:USF.COMPS:ARP:1,2015-04-01T13:18:00Z,28.4330,-82.6670,10.0,4.66,268.24,6.17,'1111122,1111122,1111122' 
COMPS,ioos:station:USF.COMPS:ARP:1,2015-04-01T13:24:00Z,28.4330,-82.6670,10.0,5.23,273.94,6.95,'1111122,1111122,1111122' 
COMPS,ioos:station:USF.COMPS:ARP:1,2015-04-01T13:30:00Z,28.4330,-82.6670,10.0,5.46,271.45,6.95,'1111122,1111122,1111122' 
COMPS,ioos:station:USF.COMPS:ARP:1,2015-04-01T13:36:00Z,28.4330,-82.6670,10.0,4.99,274.84,6.27,'1111122,1111122,1111122' 
COMPS,ioos:station:USF.COMPS:ARP:1,2015-04-01T13:42:00Z,28.4330,-82.6670,10.0,4.94,275.34,6.56,'1111122,1111122,1111122' 
COMPS,ioos:station:USF.COMPS:ARP:1,2015-04-01T13:48:00Z,28.4330,-82.6670,10.0,4.41,274.1,5.97,'1111122,1111122,1111122' 
COMPS,ioos:station:USF.COMPS:ARP:1,2015-04-01T13:54:00Z,28.4330,-82.6670,10.0,4.88,279.8,6.17,'1111122,1111122,1111122' 
COMPS,ioos:station:USF.COMPS:ARP:1,2015-04-01T14:00:00Z,28.4330,-82.6670,10.0,4.38,274.7,6.37,'1111122,1111122,1111122' 
COMPS,ioos:station:USF.COMPS:ARP:1,2015-04-01T14:06:00Z,28.4330,-82.6670,10.0,4.83,277.05,6.17,'1111122,1111122,1111122' 
COMPS,ioos:station:USF.COMPS:ARP:1,2015-04-01T14:12:00Z,28.4330,-82.6670,10.0,5.12,277.9,6.56,'1111122,1111122,1111122' 
COMPS,ioos:station:USF.COMPS:ARP:1,2015-04-01T14:18:00Z,28.4330,-82.6670,10.0,4.81,278.08,6.46,'1111122,1111122,1111122' 
COMPS,ioos:station:USF.COMPS:ARP:1,2015-04-01T14:24:00Z,28.4330,-82.6670,10.0,4.57,277.77,6.07,'1111122,1111122,1111122' 
COMPS,ioos:station:USF.COMPS:ARP:1,2015-04-01T14:30:00Z,28.4330,-82.6670,10.0,4.16,274.74,5.48,'1111122,1111122,1111122' 
COMPS,ioos:station:USF.COMPS:ARP:1,2015-04-01T14:36:00Z,28.4330,-82.6670,10.0,4.75,274.08,6.37,'1111122,1111122,1111122' 
COMPS,ioos:station:USF.COMPS:ARP:1,2015-04-01T14:42:00Z,28.4330,-82.6670,10.0,4.7,273.11,6.37,'1111122,1111122,1111122' 
COMPS,ioos:station:USF.COMPS:ARP:1,2015-04-01T14:48:00Z,28.4330,-82.6670,10.0,4.93,273.16,6.37,'1111122,1111122,1111122' 
COMPS,ioos:station:USF.COMPS:ARP:1,2015-04-01T14:54:00Z,28.4330,-82.6670,10.0,4.57,272.44,5.78,'1111122,1111122,1111122' 
COMPS,ioos:station:USF.COMPS:ARP:1,2015-04-01T15:00:00Z,28.4330,-82.6670,10.0,4.4,277.25,5.97,'1111122,1111122,1111122' 
COMPS,ioos:station:USF.COMPS:ARP:1,2015-04-01T15:06:00Z,28.4330,-82.6670,10.0,4.65,272.39,5.97,'1111122,1111122,1111122' 
COMPS,ioos:station:USF.COMPS:ARP:1,2015-04-01T15:12:00Z,28.4330,-82.6670,10.0,4.83,266.83,6.07,'1111122,1111122,1111122' 
COMPS,ioos:station:USF.COMPS:ARP:1,2015-04-01T15:18:00Z,28.4330,-82.6670,10.0,4.68,277.41,6.66,'1111122,1111122,1111122' 
COMPS,ioos:station:USF.COMPS:ARP:1,2015-04-01T15:24:00Z,28.4330,-82.6670,10.0,4.69,273.75,6.07,'1111122,1111122,1111122' 
COMPS,ioos:station:USF.COMPS:ARP:1,2015-04-01T15:30:00Z,28.4330,-82.6670,10.0,4.89,273.23,6.07,'1111122,1111122,1111122' 
COMPS,ioos:station:USF.COMPS:ARP:1,2015-04-01T15:36:00Z,28.4330,-82.6670,10.0,4.61,275.63,5.68,'1111122,1111122,1111122' 
COMPS,ioos:station:USF.COMPS:ARP:1,2015-04-01T15:42:00Z,28.4330,-82.6670,10.0,4.29,278.3,6.07,'1111122,1111122,1111122' 
COMPS,ioos:station:USF.COMPS:ARP:1,2015-04-01T15:48:00Z,28.4330,-82.6670,10.0,4.27,268.89,5.39,'1111122,1111122,1111122' 
COMPS,ioos:station:USF.COMPS:ARP:1,2015-04-01T15:54:00Z,28.4330,-82.6670,10.0,4.29,266.55,5.48,'1111122,1111122,1111122' 
COMPS,ioos:station:USF.COMPS:ARP:1,2015-04-01T16:00:00Z,28.4330,-82.6670,10.0,4.36,264.34,5.97,'1111122,1111122,1111122' 
COMPS,ioos:station:USF.COMPS:ARP:1,2015-04-01T16:06:00Z,28.4330,-82.6670,10.0,4.23,262.83,5.48,'1111122,1111122,1111122' 
COMPS,ioos:station:USF.COMPS:ARP:1,2015-04-01T16:12:00Z,28.4330,-82.6670,10.0,4.26,267.43,5.48,'1111122,1111122,1111122' 
COMPS,ioos:station:USF.COMPS:ARP:1,2015-04-01T16:18:00Z,28.4330,-82.6670,10.0,3.75,264.05,5.68,'1111122,1111122,1111122' 
COMPS,ioos:station:USF.COMPS:ARP:1,2015-04-01T16:24:00Z,28.4330,-82.6670,10.0,4.87,262.71,6.66,'1111122,1111122,1111122' 
COMPS,ioos:station:USF.COMPS:ARP:1,2015-04-01T16:30:00Z,28.4330,-82.6670,10.0,3.9,258.25,5.78,'1111122,1111122,1111122' 
COMPS,ioos:station:USF.COMPS:ARP:1,2015-04-01T16:36:00Z,28.4330,-82.6670,10.0,3.75,258.28,5.87,'1111122,1111122,1111122' 
COMPS,ioos:station:USF.COMPS:ARP:1,2015-04-01T16:42:00Z,28.4330,-82.6670,10.0,3.78,263.62,5.78,'1111122,1111122,1111122' 
COMPS,ioos:station:USF.COMPS:ARP:1,2015-04-01T16:48:00Z,28.4330,-82.6670,10.0,3.52,260.14,5.39,'1111122,1111122,1111122' 
COMPS,ioos:station:USF.COMPS:ARP:1,2015-04-01T16:54:00Z,28.4330,-82.6670,10.0,4.99,270.62,6.76,'1111122,1111122,1111122' 
COMPS,ioos:station:USF.COMPS:ARP:1,2015-04-01T17:00:00Z,28.4330,-82.6670,10.0,4.73,271.12,6.37,'1111122,1111122,1111122' 
COMPS,ioos:station:USF.COMPS:ARP:1,2015-04-01T17:06:00Z,28.4330,-82.6670,10.0,4.46,264.45,6.07,'1111122,1111122,1111122' 
COMPS,ioos:station:USF.COMPS:ARP:1,2015-04-01T17:12:00Z,28.4330,-82.6670,10.0,5.23,263.92,6.76,'1111122,1111122,1111122' 
COMPS,ioos:station:USF.COMPS:ARP:1,2015-04-01T17:18:00Z,28.4330,-82.6670,10.0,5.15,269.79,7.05,'1111122,1111122,1111122' 
COMPS,ioos:station:USF.COMPS:ARP:1,2015-04-01T17:24:00Z,28.4330,-82.6670,10.0,4.27,265.54,5.87,'1111122,1111122,1111122' 
COMPS,ioos:station:USF.COMPS:ARP:1,2015-04-01T17:30:00Z,28.4330,-82.6670,10.0,4.93,264.72,7.35,'1111122,1111122,1111122' 
COMPS,ioos:station:USF.COMPS:ARP:1,2015-04-01T17:36:00Z,28.4330,-82.6670,10.0,4.45,261.68,6.27,'1111122,1111122,1111122' 
COMPS,ioos:station:USF.COMPS:ARP:1,2015-04-01T17:42:00Z,28.4330,-82.6670,10.0,5.01,260.25,6.46,'1111122,1111122,1111122' 
COMPS,ioos:station:USF.COMPS:ARP:1,2015-04-01T17:48:00Z,28.4330,-82.6670,10.0,4.63,262.4,7.15,'1111122,1111122,1111122' 
COMPS,ioos:station:USF.COMPS:ARP:1,2015-04-01T17:54:00Z,28.4330,-82.6670,10.0,4.66,268.05,6.85,'1111122,1111122,1111122' 
COMPS,ioos:station:USF.COMPS:ARP:1,2015-04-01T18:00:00Z,28.4330,-82.6670,10.0,5.96,271.74,7.54,'1111122,1111122,1111122' 
COMPS,ioos:station:USF.COMPS:ARP:1,2015-04-01T18:06:00Z,28.4330,-82.6670,10.0,5.67,270.7,7.35,'1111122,1111122,1111122' 
COMPS,ioos:station:USF.COMPS:ARP:1,2015-04-01T18:12:00Z,28.4330,-82.6670,10.0,5.72,271.43,7.54,'1111122,1111122,1111122' 
COMPS,ioos:station:USF.COMPS:ARP:1,2015-04-01T18:18:00Z,28.4330,-82.6670,10.0,5.46,266.57,7.44,'1111122,1111122,1111122' 
COMPS,ioos:station:USF.COMPS:ARP:1,2015-04-01T18:24:00Z,28.4330,-82.6670,10.0,5.55,272.14,7.74,'1111122,1111122,1111122' 
COMPS,ioos:station:USF.COMPS:ARP:1,2015-04-01T18:30:00Z,28.4330,-82.6670,10.0,5.16,278.56,7.93,'1111122,1111122,1111122' 
COMPS,ioos:station:USF.COMPS:ARP:1,2015-04-01T18:36:00Z,28.4330,-82.6670,10.0,5.69,267.44,7.54,'1111122,1111122,1111122' 
COMPS,ioos:station:USF.COMPS:ARP:1,2015-04-01T18:42:00Z,28.4330,-82.6670,10.0,4.98,270.88,7.25,'1111122,1111122,1111122' 
COMPS,ioos:station:USF.COMPS:ARP:1,2015-04-01T18:48:00Z,28.4330,-82.6670,10.0,5.9,270.57,7.64,'1111122,1111122,1111122' 
COMPS,ioos:station:USF.COMPS:ARP:1,2015-04-01T18:54:00Z,28.4330,-82.6670,10.0,5.51,269.25,7.15,'1111122,1111122,1111122' 
COMPS,ioos:station:USF.COMPS:ARP:1,2015-04-01T19:00:00Z,28.4330,-82.6670,10.0,5.61,269.82,6.95,'1111122,1111122,1111122' 
COMPS,ioos:station:USF.COMPS:ARP:1,2015-04-01T19:06:00Z,28.4330,-82.6670,10.0,5.47,266.76,6.85,'1111122,1111122,1111122' 
COMPS,ioos:station:USF.COMPS:ARP:1,2015-04-01T19:12:00Z,28.4330,-82.6670,10.0,5.52,272.23,7.25,'1111122,1111122,1111122' 
COMPS,ioos:station:USF.COMPS:ARP:1,2015-04-01T19:18:00Z,28.4330,-82.6670,10.0,5.2,271.84,6.85,'1111122,1111122,1111122' 
COMPS,ioos:station:USF.COMPS:ARP:1,2015-04-01T19:24:00Z,28.4330,-82.6670,10.0,5.0,268.61,7.25,'1111122,1111122,1111122' 
COMPS,ioos:station:USF.COMPS:ARP:1,2015-04-01T19:30:00Z,28.4330,-82.6670,10.0,5.72,266.9,7.15,'1111122,1111122,1111122' 